This is the latest recevied weather packets stored in our database for station/object AD0YN. If no packets are shown the sender has not sent any weather packets the latest 10 day(s).
| Time | Temp. | Humidity | Pressure | Rain* | Wind** | Luminosity | Snow |
|---|---|---|---|---|---|---|---|
| 1777324566 | 23.89° C | 57% | 1002.6 hPa | 0 mm | - | 720 W/m² | - |
| 1777324263 | 23.89° C | 56% | 1002.8 hPa | 0 mm | - | 789 W/m² | - |
| 1777323961 | 23.89° C | 55% | 1002.5 hPa | 0 mm | - | 702 W/m² | - |
| 1777323658 | 23.89° C | 58% | 1002.4 hPa | 0 mm | - | 791 W/m² | - |
| 1777323355 | 23.89° C | 58% | 1002.3 hPa | 0 mm | - | 755 W/m² | - |
| 1777323053 | 23.33° C | 61% | 1002.3 hPa | 0 mm | - | 804 W/m² | - |
| 1777322750 | 24.44° C | 57% | 1002 hPa | 0 mm | - | 204 W/m² | - |
| 1777322449 | 24.44° C | 58% | 1001.7 hPa | 0 mm | - | 745 W/m² | - |
| 1777322145 | 24.44° C | 58% | 1001.7 hPa | 0 mm | - | 773 W/m² | - |
| 1777321842 | 24.44° C | 59% | 1001.7 hPa | 0 mm | - | 770 W/m² | - |
| 1777321538 | 24.44° C | 60% | 1001.5 hPa | 0 mm | - | 775 W/m² | - |
| 1777321236 | 24.44° C | 62% | 1001.7 hPa | 0 mm | - | 796 W/m² | - |
| 1777320933 | 23.89° C | 64% | 1001.8 hPa | 0 mm | - | 863 W/m² | - |
| 1777320631 | 23.33° C | 65% | 1001.8 hPa | 0 mm | - | 915 W/m² | - |
| 1777320327 | 23.89° C | 65% | 1001.9 hPa | 0 mm | - | 294 W/m² | - |
| 1777320023 | 23.89° C | 62% | 1001.9 hPa | 0 mm | - | 1046 W/m² | - |
| 1777319721 | 23.89° C | 61% | 1001.7 hPa | 0 mm | - | 229 W/m² | - |
| 1777319418 | 23.89° C | 64% | 1001.9 hPa | 0 mm | - | 842 W/m² | - |
| 1777319115 | 23.89° C | 66% | 1002 hPa | 0 mm | - | 935 W/m² | - |
| 1777318812 | 23.89° C | 64% | 1001.8 hPa | 0 mm | - | 988 W/m² | - |
| 1777318509 | 23.89° C | 65% | 1001.6 hPa | 0 mm | - | 594 W/m² | - |
| 1777318206 | 23.89° C | 66% | 1001.6 hPa | 0 mm | - | 1001 W/m² | - |
| 1777317902 | 23.33° C | 68% | 1001.3 hPa | 0 mm | - | 824 W/m² | - |
| 1777317599 | 23.33° C | 68% | 1001.3 hPa | 0 mm | - | 369 W/m² | - |
| 1777317297 | 23.89° C | 66% | 1001.3 hPa | 0 mm | - | 272 W/m² | - |
* Rain latest hour (hover to see other rain measurements)
** Current wind speed in m/s (hover to see current wind gust speed)